TimeEDT,TemperatureF,Dew PointF,Humidity,Sea Level PressureIn,VisibilityMPH,Wind Direction,Wind SpeedMPH,Gust SpeedMPH,PrecipitationIn,Events,Conditions,WindDirDegrees,DateUTC
12:53 AM,53.1,46.0,77,30.06,10.0,Calm,Calm,-,N/A,,Clear,0,2013-09-30 04:53:00
1:53 AM,48.9,45.0,86,30.06,10.0,Calm,Calm,-,N/A,,Clear,0,2013-09-30 05:53:00
2:53 AM,48.9,45.0,86,30.05,10.0,Calm,Calm,-,N/A,,Clear,0,2013-09-30 06:53:00
3:53 AM,46.9,44.1,90,30.04,7.0,Calm,Calm,-,N/A,,Clear,0,2013-09-30 07:53:00
4:53 AM,46.9,44.1,90,30.05,9.0,Calm,Calm,-,N/A,,Partly Cloudy,0,2013-09-30 08:53:00
5:32 AM,46.9,44.1,90,30.06,9.0,Calm,Calm,-,N/A,,Mostly Cloudy,0,2013-09-30 09:32:00
5:53 AM,46.0,44.1,93,30.05,7.0,SE,3.5,-,N/A,,Mostly Cloudy,130,2013-09-30 09:53:00
6:53 AM,45.0,43.0,93,30.06,7.0,Calm,Calm,-,N/A,,Clear,0,2013-09-30 10:53:00
7:34 AM,45.0,42.1,90,30.07,1.8,Calm,Calm,-,N/A,,Clear,0,2013-09-30 11:34:00
7:45 AM,45.0,43.0,93,30.07,3.0,SE,3.5,-,N/A,,Clear,130,2013-09-30 11:45:00
7:53 AM,45.0,43.0,93,30.07,4.0,SE,3.5,-,N/A,,Clear,140,2013-09-30 11:53:00
8:53 AM,54.0,48.9,83,30.07,10.0,ESE,3.5,-,N/A,,Clear,120,2013-09-30 12:53:00
9:53 AM,62.1,51.1,67,30.06,10.0,Variable,4.6,-,N/A,,Clear,0,2013-09-30 13:53:00
10:53 AM,64.9,54.0,68,30.06,10.0,SW,6.9,-,N/A,,Clear,230,2013-09-30 14:53:00
11:53 AM,66.9,53.1,61,30.04,10.0,Variable,5.8,-,N/A,,Scattered Clouds,0,2013-09-30 15:53:00
12:53 PM,68.0,52.0,56,30.03,10.0,SSW,9.2,-,N/A,,Mostly Cloudy,200,2013-09-30 16:53:00
1:53 PM,68.0,52.0,56,30.02,10.0,WSW,8.1,-,N/A,,Overcast,240,2013-09-30 17:53:00
2:53 PM,68.0,52.0,56,30.01,10.0,WSW,8.1,-,N/A,,Scattered Clouds,240,2013-09-30 18:53:00
3:53 PM,68.0,52.0,56,30.00,10.0,North,-9999.0,-,N/A,,Overcast,0,2013-09-30 19:53:00
4:53 PM,69.1,52.0,54,29.99,10.0,West,9.2,-,N/A,,Scattered Clouds,280,2013-09-30 20:53:00
5:53 PM,66.0,53.1,63,30.01,10.0,Calm,Calm,-,N/A,,Mostly Cloudy,0,2013-09-30 21:53:00
6:53 PM,64.0,54.0,70,30.02,10.0,WNW,4.6,-,N/A,,Overcast,290,2013-09-30 22:53:00
7:53 PM,63.0,55.0,75,30.03,10.0,Calm,Calm,-,N/A,,Overcast,0,2013-09-30 23:53:00
8:53 PM,59.0,54.0,83,30.04,10.0,Calm,Calm,-,N/A,,Partly Cloudy,0,2013-10-01 00:53:00
9:31 PM,57.0,54.0,89,30.05,8.0,Calm,Calm,-,N/A,,Mostly Cloudy,0,2013-10-01 01:31:00
9:53 PM,57.0,53.1,87,30.04,9.0,Calm,Calm,-,N/A,,Partly Cloudy,0,2013-10-01 01:53:00
10:13 PM,55.0,52.0,89,30.05,1.8,ESE,3.5,-,N/A,,Mostly Cloudy,120,2013-10-01 02:13:00
10:21 PM,55.0,53.1,93,30.05,3.0,Calm,Calm,-,N/A,,Mostly Cloudy,0,2013-10-01 02:21:00
10:49 PM,55.4,53.6,94,30.05,8.0,Calm,Calm,-,N/A,,Overcast,0,2013-10-01 02:49:00
10:53 PM,55.9,53.1,90,30.03,8.0,Calm,Calm,-,N/A,,Overcast,0,2013-10-01 02:53:00
11:04 PM,55.9,52.0,87,30.05,8.0,Calm,Calm,-,N/A,,Mostly Cloudy,0,2013-10-01 03:04:00
11:51 PM,53.6,51.8,94,30.04,2.5,Calm,Calm,-,N/A,,Mostly Cloudy,0,2013-10-01 03:51:00
11:53 PM,53.1,51.1,93,30.03,3.0,Calm,Calm,-,N/A,,Mostly Cloudy,0,2013-10-01 03:53:00